GFSFLT2_prec_cthk_000.txt.gz
RH
27 25 22 22 20 18 13 13 14 13 15 18 16 14 15 17 17 15 11 12 13 14 14 15 13 12 12 13 16 22 31 35
30 26 19 15 13 11 10 10 11 13 17 19 18 18 20 22 21 18 18 18 17 17 16 16 16 15 15 15 17 20 28 34
29 23 18 17 16 14 11 12 15 18 21 24 24 27 26 27 26 24 24 25 26 26 26 23 20 17 16 17 19 27 28 33
27 24 20 20 21 23 23 23 28 27 29 27 30 30 31 31 30 29 29 32 31 31 31 31 31 32 29 22 24 22 27 29
29 30 24 26 28 33 35 35 34 37 35 38 41 39 43 44 45 45 44 41 42 39 38 42 38 37 39 32 27 23 27 27
34 34 28 30 34 38 41 43 44 46 49 44 48 48 49 49 49 50 49 49 45 48 49 42 41 41 40 38 36 33 33 31
41 41 32 34 36 44 44 46 48 46 49 50 46 47 46 45 44 44 44 45 46 48 47 46 42 42 41 41 40 38 37 38
49 48 38 37 41 42 47 47 48 49 49 48 42 42 45 44 44 44 44 48 46 47 48 46 46 44 44 42 42 44 44 41
52 49 42 42 44 46 47 51 51 53 52 46 44 45 46 44 47 46 47 46 46 47 45 44 44 47 46 46 46 46 47 45
52 47 45 45 48 50 53 55 56 59 55 51 49 49 48 47 50 48 47 46 47 47 47 46 45 44 43 44 46 47 47 47
51 48 49 49 50 54 55 58 62 61 59 55 53 52 51 50 49 48 48 46 44 45 45 45 45 44 44 44 43 42 44 47
54 49 49 52 57 57 58 62 60 61 59 57 55 55 53 52 51 50 50 51 49 50 47 46 47 46 45 44 44 46 46 45
55 54 52 57 61 62 66 64 64 64 64 61 59 57 56 55 55 55 52 50 49 46 45 46 45 49 49 46 46 48 48 47
57 56 58 63 67 67 68 69 68 67 67 67 67 66 64 57 54 50 47 44 42 41 40 40 43 47 49 51 50 51 52 48
61 63 65 66 68 69 70 70 71 70 69 67 66 64 59 54 48 42 39 38 37 37 39 40 40 42 49 52 50 53 59 58
65 66 67 66 66 68 69 69 69 68 67 68 68 61 55 48 41 39 36 37 39 38 40 40 42 40 46 46 53 48 55 61
64 64 65 65 66 69 71 70 69 72 76 71 61 54 46 44 44 41 38 36 36 33 32 35 35 37 43 43 40 55 53 60
65 67 69 71 72 73 74 74 79 74 67 60 52 49 52 50 44 40 38 35 34 32 31 30 31 35 40 44 45 46 54 53
68 75 77 78 85 84 84 81 73 63 54 50 51 53 49 45 37 37 36 35 37 39 42 46 44 42 44 51 57 61 64 65
70 75 82 84 78 72 68 64 58 57 57 56 53 49 47 39 39 41 45 46 50 55 58 59 63 63 66 65 66 73 77 79

GFSFLT2_prec_cthk_003.txt.gz
RH
30 22 17 17 18 16 14 14 13 12 14 18 20 19 18 21 23 20 18 18 19 18 17 16 15 16 15 14 14 14 18 37
30 28 25 20 13 9 9 10 11 14 18 23 23 23 25 24 26 24 23 24 24 24 24 25 25 21 18 17 17 20 29 33
34 31 27 25 28 16 14 15 17 20 23 25 27 42 40 42 36 30 28 27 29 30 29 29 29 31 32 28 22 30 28 37
35 31 23 23 27 29 30 30 40 39 41 43 52 51 49 45 45 43 41 41 41 42 40 38 40 43 44 41 42 39 30 36
39 28 27 29 33 42 48 49 46 49 50 51 53 53 58 57 58 56 56 50 52 48 50 50 44 40 43 43 43 42 43 40
40 34 29 29 40 48 51 54 53 53 54 52 54 55 55 54 53 52 51 54 51 52 52 50 46 43 42 39 40 39 42 43
57 48 36 39 42 52 53 53 57 52 57 55 53 51 51 51 52 51 49 50 53 51 49 48 44 43 43 45 45 43 40 41
60 63 51 48 47 51 55 57 60 62 60 57 54 54 53 51 50 52 51 49 48 46 45 42 40 39 39 40 43 43 44 46
70 67 57 50 52 55 57 57 55 59 62 60 55 51 53 51 54 55 56 52 50 51 49 48 45 42 39 38 37 37 38 40
67 69 58 52 53 54 58 60 61 63 65 61 60 56 57 57 57 56 55 53 52 53 52 52 50 48 46 43 39 37 37 36
65 67 56 54 55 60 62 64 64 68 67 68 68 63 64 64 63 62 60 61 58 55 54 52 53 51 49 46 43 40 41 40
62 73 58 58 62 63 65 67 68 71 73 71 70 68 68 65 65 64 63 60 60 59 54 51 49 48 48 45 44 44 40 41
67 74 60 61 66 67 68 68 72 75 76 74 74 72 69 67 66 67 62 59 55 49 46 43 43 42 44 50 47 43 49 48
64 66 63 63 66 70 69 70 74 75 77 75 74 71 71 71 72 61 59 52 48 48 46 46 44 43 46 47 53 50 52 59
61 65 68 68 71 70 71 71 72 75 75 74 75 75 76 71 66 61 54 54 53 51 50 48 47 44 46 45 53 52 49 46
67 69 69 66 68 69 71 75 76 77 79 79 79 80 71 65 62 57 56 53 50 46 45 40 37 35 37 39 40 46 57 59
68 68 67 66 66 71 75 77 83 92 91 83 73 69 63 61 57 56 50 44 44 42 42 43 42 42 44 44 42 38 43 55
67 68 66 68 72 75 80 79 75 70 66 64 63 61 55 53 51 51 49 50 50 46 51 50 46 44 44 44 45 45 46 48
64 67 70 72 77 69 62 61 64 66 65 61 56 52 51 52 54 54 51 52 55 58 59 60 60 57 52 53 55 61 62 64
66 69 70 70 64 63 65 65 65 64 62 60 58 58 53 51 51 50 54 57 57 60 64 60 59 63 66 68 70 73 80 87

GFSFLT2_prec_cthk_006.txt.gz
RH
20 19 16 14 15 14 12 12 12 11 13 17 20 20 21 20 22 23 22 22 23 23 23 22 22 22 21 19 16 14 14 22
26 21 16 17 13 8 8 10 11 13 17 21 24 31 33 34 34 32 30 29 29 29 30 30 29 29 30 31 28 23 27 26
29 27 25 25 23 16 16 18 23 26 32 31 42 45 48 47 46 47 45 44 42 40 40 40 39 38 37 36 35 38 37 33
33 30 24 24 30 30 32 32 32 36 40 44 57 49 51 50 49 48 48 45 44 41 40 41 41 39 38 41 42 41 38 36
43 28 24 37 35 41 44 42 43 45 48 44 46 46 52 50 49 48 46 46 47 44 43 44 42 38 36 36 37 38 40 43
43 29 25 30 40 44 46 48 47 52 51 52 51 51 50 46 48 46 47 47 46 46 44 42 39 38 35 34 34 35 36 39
45 40 30 31 32 43 44 48 55 50 56 54 48 50 48 46 46 46 47 48 46 45 43 43 42 39 35 32 32 33 34 34
58 56 41 41 40 44 49 51 52 54 56 55 53 53 49 48 48 47 48 50 50 47 45 44 43 42 39 36 33 31 30 31
69 70 61 56 41 45 50 52 51 56 59 60 59 58 53 53 52 53 54 53 50 47 47 46 45 44 44 43 40 37 34 32
86 87 62 55 46 48 51 53 55 60 66 66 63 62 60 58 57 58 57 55 52 50 47 46 46 44 43 42 41 42 39 36
78 70 64 76 62 54 55 58 61 67 70 69 68 71 66 64 63 60 57 58 58 54 52 50 50 48 43 40 39 43 44 41
53 59 55 67 79 62 64 65 66 73 73 73 67 74 71 68 66 63 67 67 61 56 55 52 42 38 38 38 36 33 35 38
50 55 71 79 75 61 65 67 76 75 74 71 73 75 71 73 71 71 67 65 61 56 50 45 42 41 39 37 34 34 38 41
58 63 64 65 66 68 70 73 70 70 70 73 74 73 81 87 86 75 68 68 62 54 54 49 44 40 41 38 37 34 34 34
59 60 65 69 70 72 71 69 66 65 71 82 77 78 81 76 72 67 60 53 52 47 44 43 42 40 43 47 45 42 39 34
64 65 67 70 72 69 66 65 69 75 74 66 62 61 60 61 59 56 54 51 48 45 46 46 45 42 41 42 44 47 47 40
66 68 71 66 64 64 67 69 70 67 60 56 58 57 59 59 55 56 55 50 48 50 50 49 47 51 50 47 46 48 54 58
73 70 64 62 64 65 64 61 56 59 61 62 60 63 63 61 61 59 56 56 57 59 59 58 56 53 52 55 54 49 45 51
65 62 63 65 66 63 62 63 63 66 68 68 69 65 68 65 65 64 63 61 62 61 57 55 51 47 48 54 58 58 57 59
59 59 59 60 62 64 66 67 69 71 74 76 73 67 68 69 61 54 54 51 50 46 46 49 51 52 56 63 62 61 68 66

GFSFLT2_prec_cthk_009.txt.gz
RH
17 16 15 13 12 11 10 9 9 9 12 16 21 25 28 30 30 30 31 30 31 31 30 31 30 30 29 29 30 30 32 34
17 16 16 12 8 7 7 8 11 15 18 27 31 33 37 39 42 41 40 40 37 36 34 32 32 32 32 33 36 39 43 44
21 18 17 19 18 14 13 18 23 27 31 36 38 39 39 41 43 40 38 37 38 35 34 33 31 32 31 30 32 37 41 47
27 23 20 20 24 28 29 31 34 37 37 39 41 41 43 43 43 43 43 41 41 39 37 35 34 33 33 31 30 32 34 39
29 24 24 27 31 35 37 39 38 44 47 46 46 49 49 47 44 42 40 41 42 41 40 38 36 35 33 30 29 29 30 33
42 33 22 29 36 40 41 43 45 47 50 47 47 49 49 47 46 44 45 44 43 43 43 41 39 37 35 34 32 31 29 28
47 45 36 33 43 48 49 50 48 48 48 50 47 49 49 48 47 46 46 48 48 47 46 43 40 38 37 35 34 32 31 30
62 72 64 49 48 47 47 49 48 46 51 53 50 51 51 52 52 52 52 53 53 50 48 44 42 42 39 37 34 33 32 32
73 84 76 74 65 55 53 58 54 53 53 56 58 59 61 59 61 57 54 54 53 51 50 50 47 45 46 45 42 36 34 34
68 77 75 79 73 71 66 63 60 58 60 64 64 63 61 61 63 62 59 59 60 59 57 56 49 49 48 49 46 38 38 34
64 61 63 72 68 73 72 70 64 64 68 70 71 67 66 67 65 63 64 66 66 65 62 58 56 51 48 42 35 34 33 34
67 65 73 72 73 76 70 70 69 70 71 68 65 64 64 69 72 67 65 66 68 64 58 54 51 47 40 39 39 33 32 29
64 62 65 73 76 71 71 76 78 74 74 70 67 67 69 66 62 59 56 50 52 52 50 47 42 43 39 34 31 30 28 26
70 69 64 66 68 73 74 78 77 73 70 66 68 67 68 62 60 56 50 48 48 45 43 41 39 39 39 38 36 33 31 32
65 63 61 64 69 73 78 76 66 62 65 70 67 63 58 56 55 53 53 52 49 49 50 48 44 46 48 47 44 41 40 37
55 61 65 67 71 74 71 63 64 66 66 62 59 57 58 58 59 60 59 54 55 52 49 48 51 50 51 54 60 61 59 51
58 61 64 69 68 64 60 63 59 55 54 56 60 61 63 64 64 63 61 58 55 53 48 47 46 47 52 55 55 53 53 54
62 64 64 59 57 57 54 52 51 52 55 56 57 60 65 66 67 66 63 58 57 54 51 47 51 52 50 57 58 51 50 56
59 59 56 56 55 56 58 60 60 60 60 59 59 64 65 63 58 54 51 47 42 39 42 47 47 46 46 45 49 49 58 60
60 60 59 56 59 59 56 57 63 67 58 72 68 66 63 56 48 45 42 36 34 36 40 46 48 52 60 55 64 62 72 75

GFSFLT2_prec_cthk_012.txt.gz
RH
17 17 17 15 13 11 10 9 8 9 14 18 21 27 30 31 34 33 33 33 34 34 32 32 31 31 31 31 33 38 38 39
18 17 13 8 7 7 7 9 12 17 22 30 33 33 36 37 35 36 35 35 35 35 34 33 33 32 32 31 33 37 36 37
19 17 17 16 14 12 15 20 23 26 31 33 37 39 42 40 38 39 38 36 38 38 39 38 37 35 33 31 31 32 32 33
23 19 21 21 23 26 28 28 33 32 35 37 38 41 43 41 41 40 39 38 39 39 39 40 40 39 38 37 36 33 30 29
34 27 19 23 28 31 35 37 38 41 41 39 41 43 43 42 43 40 38 39 39 39 40 41 41 41 40 39 38 38 38 35
41 33 28 27 30 35 43 42 44 45 46 47 43 44 44 43 45 46 46 45 44 43 42 41 41 39 39 38 37 35 36 35
52 49 46 37 37 48 53 51 53 53 54 53 46 44 45 48 53 52 52 53 50 48 47 45 42 40 41 39 39 40 38 37
54 51 58 57 55 55 59 57 59 57 57 56 54 51 52 54 55 55 54 55 54 52 50 49 48 48 46 44 40 43 45 44
50 69 62 57 53 66 65 65 67 66 59 60 58 58 62 61 60 57 57 55 56 55 54 54 54 52 49 48 46 47 45 43
52 64 63 64 60 66 73 70 70 67 63 64 64 66 65 62 58 60 61 60 58 57 50 49 52 55 53 51 50 49 43 39
72 85 71 71 69 72 66 72 76 68 68 69 73 72 69 66 65 65 61 61 53 51 48 43 43 40 38 37 36 36 35 38
75 73 79 82 80 68 69 75 72 72 74 76 76 70 72 74 72 68 64 56 53 51 44 40 37 33 30 29 29 29 30 30
77 83 89 80 69 70 73 73 77 78 83 83 78 79 72 71 71 61 55 53 50 48 46 44 41 40 36 33 30 31 33 34
80 80 76 73 71 74 77 78 78 80 86 84 72 70 70 65 59 59 55 54 55 55 53 48 48 45 40 37 34 31 34 36
64 64 66 70 74 77 79 79 82 78 75 71 70 64 61 57 55 54 55 56 55 54 53 51 46 45 45 48 47 44 41 37
56 58 63 66 69 72 72 72 67 62 59 56 55 55 51 51 53 54 55 58 57 52 46 46 45 45 45 48 50 47 42 39
56 60 64 67 65 63 61 58 55 54 54 54 54 59 62 58 60 63 63 52 44 42 45 45 46 46 48 47 46 42 44 41
61 62 59 58 58 57 57 55 53 53 54 58 62 63 66 62 78 75 61 50 46 45 39 42 42 40 46 48 44 48 49 50
63 65 64 63 62 58 56 55 55 57 59 62 67 77 78 53 56 58 52 43 30 28 28 29 34 40 43 55 52 58 70 67
66 66 63 59 57 57 57 60 64 62 63 57 67 59 55 46 53 43 30 26 26 25 26 30 35 42 48 54 59 64 71 71

GFSFLT2_prec_cthk_015.txt.gz
RH
17 17 17 17 14 13 11 8 7 11 17 23 26 30 33 34 35 33 32 32 31 33 31 30 29 30 30 30 32 35 37 39
17 16 13 9 7 8 7 9 14 19 26 29 33 35 37 37 37 36 36 37 37 37 35 34 34 34 33 32 31 31 32 34
14 12 11 10 10 10 14 18 22 27 30 35 37 37 38 40 39 40 39 38 40 38 38 38 38 38 36 36 35 33 30 30
17 16 17 16 17 19 22 26 29 32 35 34 35 36 37 38 38 41 42 44 44 42 41 43 43 41 41 41 40 37 33 32
29 23 20 22 23 25 28 33 40 45 42 41 41 41 40 39 39 41 44 48 48 48 48 47 45 43 44 44 42 40 38 33
35 28 31 33 33 34 38 43 50 50 48 49 46 45 45 43 43 43 48 51 52 51 51 51 50 47 46 46 45 45 44 42
45 42 48 48 47 43 47 55 56 57 54 55 54 49 48 47 48 49 52 52 51 52 52 52 53 52 52 51 49 48 48 47
51 53 50 54 54 50 52 56 62 61 56 57 55 54 53 55 57 57 55 51 55 56 55 53 51 50 46 47 51 54 52 52
62 63 60 59 63 59 61 63 63 56 58 60 59 60 62 66 65 61 55 54 57 57 54 49 48 46 40 42 45 47 47 46
79 82 78 75 81 87 84 81 66 66 65 65 69 70 72 72 69 64 60 59 58 56 50 45 44 41 36 35 34 33 32 31
83 87 85 90 91 93 89 77 70 72 70 73 75 76 76 76 74 66 64 56 53 49 42 41 39 38 36 35 35 34 33 31
88 90 93 92 87 84 83 76 77 78 77 77 79 77 75 77 71 62 56 51 46 42 40 39 39 39 38 39 38 38 36 34
89 82 83 77 70 76 82 80 83 81 76 78 87 83 79 68 60 56 54 52 48 46 43 41 41 41 38 36 34 37 39 38
71 75 76 78 78 81 82 82 77 74 78 79 76 70 64 57 58 56 51 48 48 47 48 46 45 44 41 34 34 32 34 38
65 63 67 69 71 71 70 70 71 71 69 64 58 53 53 56 55 54 54 56 57 51 51 55 48 44 41 37 38 38 37 34
57 57 56 59 61 63 65 65 66 64 62 59 57 56 56 54 54 56 68 67 64 57 53 43 39 39 38 33 33 37 40 37
59 62 64 67 66 66 65 64 62 59 57 58 56 58 60 58 54 69 61 55 55 51 36 32 33 33 34 34 33 31 41 47
56 60 65 69 68 65 62 59 58 59 59 56 56 62 53 55 47 51 49 43 45 35 28 27 24 24 27 30 39 45 51 54
63 63 66 63 61 58 59 59 58 59 54 50 45 40 43 39 41 44 49 43 35 34 35 36 33 35 38 44 46 52 59 59
65 63 58 55 56 58 57 53 49 44 39 33 34 35 37 44 50 57 54 53 50 49 49 47 48 49 44 49 38 38 47 49

GFSFLT2_prec_cthk_018.txt.gz
RH
35 21 18 18 16 14 12 9 7 15 23 26 30 33 32 31 30 31 32 33 32 32 33 31 31 30 29 29 29 28 29 31
18 17 16 14 10 10 8 9 16 23 28 35 36 35 34 34 34 36 37 37 37 36 37 35 35 34 33 32 31 31 30 29
15 12 10 9 9 9 12 17 22 31 37 37 37 38 37 37 37 37 38 40 40 42 42 41 40 40 41 38 36 34 33 32
15 15 14 12 12 15 19 24 31 37 44 46 48 45 43 42 41 43 45 45 45 45 45 43 43 44 43 43 41 38 37 35
22 19 18 18 20 24 26 33 39 49 52 54 54 52 48 47 46 48 50 49 48 47 46 47 46 47 47 47 46 44 40 39
30 33 29 31 36 38 40 45 50 55 60 59 54 54 53 51 51 53 53 53 51 49 47 48 49 48 46 46 46 43 45 46
44 42 44 45 46 45 50 56 60 59 60 57 57 58 58 55 55 58 58 57 54 50 48 50 50 48 43 42 42 40 40 42
57 55 50 53 58 61 62 65 68 72 68 62 62 61 63 63 61 63 64 64 60 57 54 52 52 48 41 40 39 38 37 36
62 68 62 64 70 76 80 85 85 78 75 69 67 67 69 70 70 72 70 70 66 61 58 52 47 41 35 33 32 31 30 30
67 79 81 80 85 92 96 89 85 84 78 79 77 76 76 76 74 74 75 70 62 55 49 47 43 38 35 34 33 31 30 30
71 83 90 95 89 91 91 85 82 81 81 85 86 84 77 75 75 78 73 66 52 49 47 44 41 39 38 37 38 38 37 35
78 83 89 91 93 84 83 78 78 83 89 87 78 76 82 80 72 64 58 52 49 47 46 44 42 38 37 37 38 38 37 36
94 93 88 87 81 82 74 75 80 78 72 71 74 73 70 62 59 55 51 50 48 44 46 47 47 45 43 41 36 32 32 31
78 78 79 77 76 74 73 71 69 68 65 63 62 59 56 51 47 46 46 47 46 51 53 51 47 42 37 34 35 32 30 31
65 61 62 66 65 61 61 62 62 63 61 62 60 56 53 51 51 52 52 51 49 48 45 43 40 35 30 34 37 35 30 25
55 58 61 60 61 63 69 68 66 63 61 58 56 57 58 58 55 49 46 41 38 38 31 31 30 27 27 30 34 39 41 38
64 67 60 62 66 66 66 63 60 60 59 58 57 56 53 47 41 37 34 37 39 39 35 30 29 29 32 33 31 35 42 48
64 64 66 65 62 62 59 57 59 60 56 53 48 43 38 32 30 35 37 41 44 37 38 37 36 35 37 40 42 45 41 45
67 70 71 67 62 60 59 57 53 47 42 37 34 32 31 30 30 29 41 46 47 46 48 53 52 54 49 47 53 54 49 40
74 75 72 64 60 56 51 47 46 44 41 39 38 35 33 35 36 39 46 48 53 60 60 59 53 58 63 59 60 53 43 46

GFSFLT2_prec_cthk_021.txt.gz
RH
53 47 34 21 21 20 17 11 9 18 25 29 31 32 32 32 32 32 33 33 33 33 32 30 29 30 30 28 28 28 28 27
38 23 23 21 19 16 12 9 19 27 31 35 34 35 35 36 41 41 42 38 36 37 37 36 35 35 35 35 34 33 32 31
21 21 19 15 13 12 12 19 26 33 38 41 42 44 47 46 46 47 46 47 47 45 42 41 41 40 40 40 40 39 37 35
20 17 16 16 15 16 20 26 35 41 44 48 51 55 53 52 51 51 52 52 53 51 44 42 42 41 41 41 40 40 39 39
21 20 18 17 19 24 29 37 44 48 50 53 56 59 56 55 55 55 55 56 55 55 49 45 43 44 43 41 37 35 34 34
31 28 24 25 31 38 43 48 54 58 59 59 59 57 56 54 56 57 56 56 56 56 55 51 49 44 43 41 37 34 33 34
42 42 42 42 45 49 52 57 64 69 68 71 66 62 63 59 60 61 62 63 62 64 62 56 53 49 44 41 38 33 29 28
54 49 52 56 60 61 61 67 78 80 81 80 82 78 76 72 71 71 69 67 66 68 67 59 53 50 43 36 32 30 27 26
62 72 72 71 76 81 88 88 84 84 85 88 88 86 83 81 82 76 73 71 73 63 60 57 51 43 38 35 33 31 29 29
69 77 80 84 83 90 89 86 80 78 82 87 86 90 88 86 82 74 74 67 65 62 60 53 45 41 40 38 36 34 32 32
76 83 89 91 89 86 85 90 86 81 78 80 89 86 80 78 73 81 74 62 56 51 48 46 43 41 41 41 40 38 38 36
73 86 93 89 91 88 82 84 79 81 81 82 76 73 70 65 61 59 56 52 48 46 46 45 42 38 36 36 34 31 30 30
81 88 83 83 83 73 74 74 78 71 69 66 62 60 60 61 59 55 50 48 47 46 45 44 40 35 30 28 25 21 27 26
81 79 72 64 63 67 70 67 62 58 58 60 60 60 59 56 54 54 54 54 52 47 40 31 27 24 21 23 24 25 27 26
66 65 60 62 68 65 64 59 56 58 59 59 59 58 57 55 53 52 48 43 38 34 30 28 26 25 24 30 33 32 37 30
60 60 61 67 62 66 62 58 58 59 60 60 60 59 56 50 45 40 34 29 27 27 29 30 29 30 31 36 36 38 44 42
63 61 59 62 62 61 63 61 61 60 61 60 57 51 42 35 31 27 25 24 27 33 33 32 35 37 41 43 43 50 54 61
58 58 59 66 69 71 71 64 60 54 51 47 41 37 34 32 32 31 29 30 37 43 43 46 48 44 45 48 49 53 53 57
57 60 64 70 73 69 64 57 52 48 44 41 42 39 35 30 27 29 33 41 50 49 48 49 41 41 44 49 52 53 47 50
61 64 65 65 63 61 61 60 55 53 51 46 40 35 29 24 24 29 36 45 43 48 44 40 42 42 43 49 52 53 43 43

GFSFLT2_prec_cthk_024.txt.gz
RH
84 74 70 57 27 25 23 15 12 18 27 34 34 33 33 33 36 37 39 39 39 39 37 35 36 36 34 33 34 32 34 33
73 66 50 31 28 25 19 11 17 30 36 40 38 37 38 40 46 47 47 45 47 45 45 43 40 39 38 37 36 41 44 43
48 34 32 34 28 20 15 14 28 36 42 45 46 50 47 51 51 50 50 51 51 49 48 46 43 41 39 40 41 42 42 43
29 30 29 24 21 17 15 26 41 48 52 53 54 54 55 53 54 54 52 54 55 54 50 48 48 47 43 41 43 40 40 40
27 25 21 20 24 24 29 38 48 52 56 58 59 62 60 60 59 53 53 55 58 57 57 57 52 49 45 40 42 40 39 38
31 24 21 20 25 29 35 50 55 62 61 62 67 72 68 67 64 61 61 61 60 60 59 56 55 51 46 42 40 39 37 34
37 30 28 28 32 39 46 54 61 64 69 78 79 77 72 75 73 73 72 73 68 65 63 60 54 51 50 44 42 40 35 31
46 49 48 50 52 58 64 70 70 71 75 84 94 87 87 86 83 79 81 77 74 72 65 59 54 54 53 46 43 39 34 31
60 65 66 73 78 75 77 76 76 76 78 85 94 91 93 93 90 84 80 73 72 68 64 60 54 51 48 45 42 38 35 32
74 82 86 86 90 94 90 89 82 87 81 80 86 88 91 90 84 74 70 63 60 62 58 52 50 46 43 40 36 34 31 31
76 82 83 88 93 92 81 84 85 83 83 82 82 82 84 72 67 62 58 56 53 53 52 48 42 42 37 33 30 29 25 22
73 78 86 96 86 81 73 71 77 79 79 74 68 64 62 58 57 55 53 52 51 50 47 45 45 43 37 28 27 24 24 27
74 84 91 87 75 71 70 74 73 69 64 58 58 58 56 55 56 57 55 55 52 51 50 44 40 35 30 27 25 26 36 37
80 83 79 74 71 67 69 68 63 58 56 59 60 59 63 64 64 62 56 52 48 42 34 29 31 33 32 27 27 26 30 46
73 73 73 67 63 62 57 57 58 60 64 65 65 66 65 62 57 52 43 37 32 30 31 30 32 28 30 30 34 32 34 35
68 62 59 56 54 56 57 62 66 65 68 72 69 62 58 51 43 36 35 32 31 34 32 34 36 34 33 37 37 39 43 42
54 51 50 51 54 60 64 70 73 71 69 65 63 54 50 46 41 37 35 35 37 34 35 41 43 42 40 39 42 45 49 54
50 51 51 56 60 64 68 66 66 64 65 66 60 59 54 52 49 43 34 31 33 36 43 47 48 43 41 43 49 51 52 54
54 54 59 61 64 63 59 65 72 64 62 58 59 53 48 44 35 33 37 36 37 46 47 46 46 45 46 52 57 58 60 62
57 59 60 60 58 62 67 74 67 62 54 50 48 44 38 33 31 31 36 40 43 47 47 47 53 53 55 56 59 62 62 60

GFSFLT2_prec_cthk_027.txt.gz
RH
89 89 90 82 59 29 23 17 14 13 23 33 33 32 33 33 33 36 39 43 44 44 45 43 41 38 39 39 37 38 41 47
92 93 83 63 36 26 22 15 13 21 32 38 36 35 34 39 40 41 45 49 49 48 46 46 44 44 42 38 38 42 40 48
91 87 73 44 32 27 20 14 18 30 37 41 41 51 50 52 47 46 50 52 51 52 52 52 53 51 49 45 41 42 42 42
72 60 56 52 35 23 17 15 29 42 49 49 58 56 63 60 53 52 53 52 51 53 57 58 57 58 57 52 46 40 43 42
32 40 37 31 27 24 24 33 45 50 56 57 61 65 70 72 76 69 70 64 70 68 67 63 57 55 53 49 47 43 41 40
36 34 28 30 27 33 38 51 54 53 58 59 67 73 77 85 86 77 77 77 72 72 72 65 64 58 55 49 45 45 45 41
40 31 28 27 34 38 48 54 61 63 66 70 73 76 79 79 83 84 87 82 80 78 73 68 66 60 52 50 48 46 44 42
41 41 40 41 51 55 62 66 62 65 68 71 74 80 83 82 86 90 95 89 84 74 63 57 57 59 56 49 47 44 41 40
55 53 62 70 69 70 70 68 67 67 72 75 75 78 83 86 86 89 89 83 69 57 52 53 51 51 48 45 43 41 35 36
67 71 74 78 77 79 79 74 73 71 74 72 76 81 81 85 84 79 70 62 55 54 53 50 49 46 44 42 38 31 28 29
72 71 73 77 82 88 75 76 76 73 79 74 78 80 74 69 62 57 55 54 52 51 51 48 48 45 39 39 35 28 30 30
66 69 73 78 85 80 73 71 75 78 70 69 65 60 58 58 53 51 54 56 56 54 50 46 43 39 34 34 32 30 26 33
69 72 77 83 86 78 76 75 75 67 61 57 54 53 53 54 58 61 62 63 58 53 46 39 37 34 33 33 30 26 29 29
72 76 80 86 76 72 71 71 61 59 56 54 57 59 63 66 67 69 66 59 49 41 42 38 37 33 31 34 33 28 30 35
76 76 75 69 68 64 59 58 54 54 58 62 65 66 66 68 66 61 54 47 45 42 41 40 35 35 37 38 36 35 35 34
66 70 67 61 56 54 56 60 65 67 69 69 66 64 65 58 55 52 48 46 46 45 42 40 38 43 41 40 41 41 39 35
67 62 58 54 53 56 60 63 66 69 69 71 70 66 57 54 53 52 51 48 47 44 42 41 44 44 44 42 41 42 41 46
57 55 53 53 53 56 60 62 62 59 69 77 70 59 56 53 50 43 41 44 46 46 49 48 48 46 43 47 47 46 46 51
54 52 53 53 54 55 57 57 64 70 78 66 59 56 54 50 42 40 39 41 40 49 44 54 46 54 58 59 56 53 55 58
52 52 53 54 55 58 60 63 66 69 63 57 54 53 49 44 43 43 43 43 43 48 50 53 53 57 58 68 72 70 67 68

GFSFLT2_prec_cthk_030.txt.gz
RH
96 93 93 84 71 55 38 22 15 12 18 28 28 29 30 31 32 34 38 40 43 43 44 44 45 45 43 42 39 35 39 44
91 97 84 73 62 49 36 27 19 19 27 29 30 32 33 33 34 39 42 48 47 46 48 49 53 52 51 49 45 38 37 41
98 95 84 71 49 27 23 17 16 23 28 34 39 41 42 46 43 44 47 50 49 52 51 55 57 54 53 53 46 44 41 40
82 78 65 51 31 26 20 19 23 29 35 45 53 55 55 52 54 55 54 56 60 62 63 63 63 61 59 54 52 48 40 38
58 46 41 44 32 22 22 26 34 46 53 49 63 53 61 65 82 81 68 71 70 69 70 68 64 61 56 54 48 45 43 42
35 37 38 31 24 27 31 41 43 45 53 56 60 65 69 74 75 82 77 81 77 79 79 72 64 57 50 52 52 50 44 42
33 29 30 27 33 36 48 44 54 55 63 64 66 69 73 70 71 73 71 78 82 83 79 68 59 52 48 48 46 46 45 43
38 36 35 41 46 53 60 61 59 63 65 67 71 69 68 70 75 77 74 74 71 70 63 61 52 46 45 45 43 41 40 39
48 50 57 66 65 64 65 67 64 65 68 65 63 61 59 66 68 70 72 68 64 66 57 48 46 43 42 40 37 38 36 30
56 61 66 67 70 73 68 70 66 61 63 59 56 59 61 65 65 72 59 54 49 46 48 47 44 43 38 35 33 31 30 27
64 69 68 70 72 74 72 70 65 62 61 57 58 61 63 60 52 48 45 45 46 49 50 51 48 37 33 31 31 30 29 26
65 69 69 74 73 78 80 70 61 59 57 58 58 53 48 46 46 45 47 52 55 56 55 51 43 35 33 31 31 30 25 26
60 65 72 72 76 81 72 57 54 54 55 54 47 45 45 47 50 53 57 60 57 50 42 38 36 36 33 31 27 26 26 26
64 68 72 71 79 69 58 55 52 51 48 46 47 50 53 57 59 61 59 49 45 42 37 35 36 36 33 30 31 30 29 30
65 69 69 71 68 57 56 52 49 46 47 48 53 60 63 61 63 59 49 48 45 38 35 38 38 36 33 37 36 37 34 31
66 68 63 62 61 58 53 50 50 52 55 56 60 62 64 65 58 52 53 47 38 35 37 41 40 38 38 36 34 36 35 32
59 63 60 62 57 54 51 54 56 58 60 65 63 67 67 61 55 54 47 42 35 36 44 46 44 42 38 37 36 40 40 41
58 61 59 54 53 52 53 53 55 56 59 63 64 67 65 58 52 44 40 35 35 37 43 48 47 44 45 46 51 52 53 55
56 53 51 51 51 49 50 52 54 56 59 61 70 71 63 57 44 41 39 37 39 39 47 48 47 46 54 52 58 58 65 65
51 49 49 50 48 46 49 53 57 59 62 66 73 67 66 52 42 47 41 41 41 45 50 50 49 52 53 54 60 66 75 76

GFSFLT2_prec_cthk_033.txt.gz
RH
95 96 93 88 81 64 53 31 24 24 24 25 26 29 27 26 28 29 33 36 40 43 46 49 49 47 47 44 43 43 40 36
91 92 84 77 66 51 39 28 20 20 24 26 26 27 28 28 30 33 39 43 46 46 51 54 54 54 52 50 49 45 42 40
94 91 89 75 58 43 31 25 21 23 23 27 29 33 37 36 38 42 45 48 52 59 62 58 58 56 53 52 48 46 44 42
89 84 73 57 42 28 20 14 17 21 26 31 36 43 47 48 52 56 59 63 67 66 66 66 65 61 51 48 47 47 43 40
75 72 55 37 28 22 17 19 22 24 31 42 49 54 56 58 69 69 72 68 71 70 73 73 69 65 59 53 48 46 45 44
50 47 38 31 21 19 20 23 28 39 43 52 61 58 60 62 67 69 68 72 73 71 74 71 71 63 52 50 45 39 38 37
45 40 34 25 26 30 36 40 41 47 50 57 68 60 62 67 66 68 68 69 71 73 63 60 57 49 46 40 37 36 36 34
45 43 40 43 45 50 59 55 60 55 61 59 61 57 56 57 61 62 64 64 66 59 56 49 45 45 44 36 32 30 31 31
44 48 51 53 53 59 65 70 62 66 62 55 51 53 54 55 57 59 61 63 60 51 45 42 41 39 38 35 33 31 30 28
44 50 52 53 55 60 62 63 58 57 55 49 53 51 53 55 60 57 50 45 41 40 41 41 43 40 34 31 31 30 30 27
50 52 55 60 56 60 64 62 58 56 50 50 50 50 54 57 53 47 44 41 41 45 46 44 36 33 31 29 30 30 30 27
54 54 55 61 60 63 68 64 51 51 48 48 53 53 50 49 45 44 46 50 52 51 44 41 36 31 29 30 30 27 26 28
45 55 55 64 59 65 70 58 57 53 52 49 52 48 44 45 47 51 55 56 54 47 41 39 33 30 28 29 27 28 28 28
55 61 62 64 65 71 68 64 61 52 49 48 46 45 48 52 56 56 58 54 48 43 40 36 32 32 32 33 31 31 31 31
58 71 63 65 65 68 66 60 53 49 49 45 46 47 51 54 54 57 58 56 48 42 37 35 35 36 35 36 38 36 33 32
58 59 60 62 64 64 58 53 48 46 44 47 51 54 56 54 58 64 57 53 51 44 37 36 36 36 36 39 40 40 40 34
56 56 59 59 58 59 53 51 46 45 47 49 52 51 50 56 62 64 57 52 52 39 34 37 40 42 45 49 48 46 41 42
52 56 56 59 57 54 53 51 46 46 51 56 57 59 59 62 65 62 56 53 39 33 35 38 42 46 50 50 48 49 50 53
53 53 54 55 51 50 50 46 48 53 59 60 63 63 64 64 66 63 55 36 33 37 41 44 44 47 49 51 54 55 60 62
47 49 49 47 48 49 50 49 52 55 56 60 65 66 66 63 67 60 45 42 43 42 44 48 51 53 52 53 55 59 61 61

GFSFLT2_prec_cthk_036.txt.gz
RH
98 96 93 88 80 70 60 49 37 29 20 19 20 21 24 27 27 29 32 34 38 41 44 50 49 48 49 48 46 43 41 39
98 96 90 89 82 66 50 36 34 35 30 26 22 28 28 29 31 32 38 41 43 47 54 57 57 55 52 51 47 45 41 40
92 90 86 77 67 55 44 34 32 30 28 28 31 29 29 32 35 39 44 50 56 58 62 63 62 60 56 51 49 45 42 41
84 72 70 67 51 40 32 27 23 22 23 24 31 37 43 46 46 50 51 58 66 62 63 64 65 67 60 52 48 44 43 38
63 66 64 46 32 26 21 19 22 26 27 32 43 49 52 56 55 59 61 62 61 65 67 68 66 61 54 51 49 43 36 30
65 61 50 37 27 24 23 20 23 30 44 51 51 54 54 57 60 63 61 60 60 63 63 66 65 50 41 36 34 35 33 30
47 45 41 32 27 27 31 35 39 39 50 55 55 59 63 57 53 52 56 56 58 59 61 54 49 43 37 35 34 33 31 29
45 50 44 41 45 45 49 51 48 53 58 58 55 54 54 55 52 53 54 57 58 58 54 44 39 36 36 35 31 30 29 29
45 48 47 47 51 54 59 58 66 60 63 61 52 49 48 51 52 53 54 56 53 46 38 36 38 37 37 33 29 27 27 26
51 52 48 53 54 53 59 62 65 62 58 48 46 42 48 50 51 53 53 49 40 37 37 40 40 40 35 32 29 27 27 27
52 50 48 48 53 55 64 67 63 49 42 42 44 47 50 50 51 49 43 40 38 41 44 45 41 36 39 35 32 30 28 28
45 49 50 50 58 56 63 64 49 40 40 46 43 46 46 47 45 41 41 40 45 47 48 46 43 42 40 36 34 31 32 33
42 44 51 56 54 59 60 54 48 43 46 46 45 44 43 43 42 42 46 49 51 51 54 50 47 44 39 37 34 36 35 34
54 56 62 59 58 55 54 54 49 50 48 43 42 43 43 42 45 48 52 55 57 58 52 49 46 46 41 39 37 36 37 36
58 63 62 58 57 56 54 53 52 48 46 45 46 46 45 47 51 55 60 64 68 59 54 51 49 45 41 40 41 43 41 40
59 62 61 58 59 59 57 56 52 51 48 48 47 48 51 54 55 56 61 64 63 62 60 55 45 40 41 42 44 47 46 43
61 61 62 60 61 62 60 59 53 51 49 48 51 54 55 57 57 58 62 63 64 64 64 51 47 46 47 52 53 51 48 51
68 62 57 59 61 60 58 55 50 48 48 51 55 58 59 64 69 73 72 61 63 52 50 50 47 48 49 50 51 51 53 53
59 56 56 57 55 55 53 52 53 53 56 59 62 65 69 67 71 72 76 71 57 44 45 46 46 49 51 52 54 54 55 57
52 51 52 52 53 54 54 58 63 68 70 71 71 72 69 78 83 86 73 66 65 56 44 50 54 54 54 57 57 57 58 56